SR 1 & Rt 16, Milton DE USA current weather conditions

sailwx.info

Wind from 230 at 7 knots gusting 11

Air temperature 14.9° C
Dewpoint 14.4° C

Last reported at 2019-Dec-09 22:55 UTC.
Time now 2019-Dec-09 23:18 UTC

Location: N 38°48' W 075°16'.
View on Google Maps.

See reports from other nearby stations

  
Tides and Currents Weather Stations Pressure Air Temp Water Temp Dewpoint Dewpoint Depression Visibility Wind Speed Wind Dir Waves Ship Positions
date/time (UTC)wind fromknots sea level pressurealtimeterstation pressurevisibilityair tempwater tempwave heightnotes
2019-Dec-09 22:55 230 7 gusting 11 14.9
2019-Dec-09 22:50 210 7 gusting 11 14.9
2019-Dec-09 22:45 195 5 gusting 10 14.9
2019-Dec-09 22:40 225 6 gusting 15 14.9
2019-Dec-09 22:35 230 6 gusting 15 14.9
2019-Dec-09 22:30 230 7 gusting 11 15.1
2019-Dec-09 22:25 210 5 gusting 11 14.9
2019-Dec-09 22:20 240 6 gusting 11 14.8
2019-Dec-09 22:15 240 6 gusting 11 14.8
2019-Dec-09 22:10 225 6 gusting 9 14.6
2019-Dec-09 22:05 230 6 gusting 8 14.3
2019-Dec-09 22:00 235 6 gusting 9 14.3
2019-Dec-09 21:55 230 7 gusting 9 14.3
2019-Dec-09 21:50 235 5 gusting 8 14.2
2019-Dec-09 21:45 235 6 gusting 9 14.2
2019-Dec-09 21:40 230 6 gusting 9 14.1
2019-Dec-09 21:35 235 6 gusting 8 13.8
2019-Dec-09 21:30 225 4 gusting 7 13.6
2019-Dec-09 21:25 240 4 gusting 8 13.4
2019-Dec-09 21:20 235 5 gusting 6 13.4
2019-Dec-09 21:15 220 2 gusting 6 13.2
2019-Dec-09 21:10 255 2 gusting 6 13.2
2019-Dec-09 21:05 190 2 gusting 5 13.2
2019-Dec-09 21:00 195 2 gusting 5 13.1
2019-Dec-09 20:55 185 3 gusting 5 12.9
2019-Dec-09 20:50 200 3 gusting 6 12.8
2019-Dec-09 20:45 170 4 gusting 6 12.8
2019-Dec-09 20:40 165 4 gusting 7 12.8
2019-Dec-09 20:35 180 3 gusting 7 12.6
2019-Dec-09 20:30 185 3 gusting 6 12.4
2019-Dec-09 20:25 185 3 gusting 5 12.4
2019-Dec-09 20:20 165 2 gusting 5 12.4
2019-Dec-09 20:15 175 1 gusting 6 12.3
2019-Dec-09 20:10 210 3 gusting 6 12.3
2019-Dec-09 20:05 215 2 gusting 6 12.3
2019-Dec-09 20:00 225 4 gusting 7 12.3
2019-Dec-09 19:55 240 5 gusting 7 12.3
2019-Dec-09 19:50 235 4 gusting 7 12.4
2019-Dec-09 19:45 235 4 gusting 7 12.3
2019-Dec-09 19:40 225 5 gusting 6 12.3
2019-Dec-09 19:35 225 2 gusting 6 12.3
2019-Dec-09 19:30 235 3 gusting 6 12.3
2019-Dec-09 19:25 235 4 gusting 7 12.3
2019-Dec-09 19:20 245 3 gusting 7 12.3
2019-Dec-09 19:15 230 3 gusting 6 12.3
2019-Dec-09 19:10 235 5 gusting 6 12.3
2019-Dec-09 19:05 230 4 gusting 6 12.3
2019-Dec-09 19:00 220 4 gusting 6 12.3
2019-Dec-09 18:55 235 2 gusting 5 12.3
2019-Dec-09 18:50 240 4 gusting 6 12.3
2019-Dec-09 18:45 250 2 gusting 4 12.3
2019-Dec-09 18:40 265 2 gusting 4 12.3
2019-Dec-09 18:35 265 2 gusting 5 12.3
2019-Dec-09 18:30 265 3 gusting 8 12.3
2019-Dec-09 18:25 275 5 gusting 8 12.3
2019-Dec-09 18:20 250 6 gusting 8 12.3
2019-Dec-09 18:15 270 5 gusting 8 12.4
2019-Dec-09 18:10 275 5 gusting 8 12.4
2019-Dec-09 18:05 265 3 gusting 9 12.7
2019-Dec-09 18:00 260 5 gusting 10 12.6
2019-Dec-09 17:55 270 7 gusting 10 12.4
2019-Dec-09 17:50 260 6 gusting 9 12.6
2019-Dec-09 17:45 240 6 gusting 8 12.6
2019-Dec-09 17:40 265 5 gusting 8 12.7
2019-Dec-09 17:35 240 6 gusting 8 12.6
2019-Dec-09 17:30 245 4 gusting 8 12.6
2019-Dec-09 17:25 245 5 gusting 8 12.3
2019-Dec-09 17:20 240 4 gusting 7 12.4
2019-Dec-09 17:15 245 4 gusting 7 12.2
2019-Dec-09 17:10 260 4 gusting 8 12.3
2019-Dec-09 17:05 230 6 gusting 9 12.2
2019-Dec-09 17:00 235 5 gusting 9 12.2
2019-Dec-09 16:55 245 6 gusting 10 12.2
2019-Dec-09 16:50 260 5 gusting 13 12.2
2019-Dec-09 16:45 245 9 gusting 13 11.9
2019-Dec-09 16:40 245 8 gusting 11 12.1
2019-Dec-09 16:35 240 6 gusting 11 12.1
2019-Dec-09 16:30 250 6 gusting 11 11.9
2019-Dec-09 16:25 250 4 gusting 14 12.2
2019-Dec-09 16:20 250 6 gusting 14 12.1
2019-Dec-09 16:15 260 6 gusting 11 12.2
2019-Dec-09 16:10 245 6 gusting 13 12.1
2019-Dec-09 16:05 235 9 gusting 13 11.8
2019-Dec-09 16:00 240 9 gusting 11 11.8
2019-Dec-09 15:55 245 6 gusting 11 11.9
2019-Dec-09 15:50 240 6 gusting 11 11.8
2019-Dec-09 15:45 230 9 gusting 12 11.8
2019-Dec-09 15:40 235 9 gusting 12 11.8
2019-Dec-09 15:35 235 6 gusting 10 11.8
2019-Dec-09 15:30 230 6 gusting 11 11.8
2019-Dec-09 15:25 230 5 gusting 11 11.8
2019-Dec-09 15:20 240 8 gusting 11 11.6
2019-Dec-09 15:15 230 6 gusting 10 11.6
2019-Dec-09 15:10 235 5 gusting 8 11.8
2019-Dec-09 15:05 245 5 gusting 8 11.6
2019-Dec-09 15:00 235 5 gusting 10 11.2
2019-Dec-09 14:55 240 6 gusting 10 11.2
2019-Dec-09 14:50 225 7 gusting 11 11.2
2019-Dec-09 14:45 225 6 gusting 11 11.2
2019-Dec-09 14:40 220 5 gusting 12 11.1
2019-Dec-09 14:35 215 5 gusting 14 11.1
2019-Dec-09 14:30 245 8 gusting 15 10.9
2019-Dec-09 14:25 235 10 gusting 15 11.1
2019-Dec-09 14:20 255 6 gusting 11 11.2
2019-Dec-09 14:15 245 7 gusting 11 11.2
2019-Dec-09 14:10 270 7 gusting 13 11.2
2019-Dec-09 14:05 265 9 gusting 13 11.3
2019-Dec-09 14:00 250 8 gusting 14 11.4
2019-Dec-09 13:55 240 8 gusting 14 11.6
2019-Dec-09 13:50 230 7 gusting 11 11.4
2019-Dec-09 13:45 235 7 gusting 13 11.4
2019-Dec-09 13:40 235 9 gusting 13 11.2
2019-Dec-09 13:35 230 9 gusting 13 11.2
2019-Dec-09 13:30 230 9 gusting 12 10.9
2019-Dec-09 13:25 230 8 gusting 11 10.4
2019-Dec-09 13:20 235 5 gusting 8 10.1
2019-Dec-09 13:15 250 3 gusting 5 9.6
2019-Dec-09 13:10 235 2 gusting 4 9.5
2019-Dec-09 13:05 250 2 gusting 4 9.6
2019-Dec-09 13:00 240 3 gusting 6 9.8
2019-Dec-09 12:55 255 4 gusting 6 10.1
2019-Dec-09 12:50 270 4 gusting 6 10.2
2019-Dec-09 12:45 270 4 gusting 6 10.2
2019-Dec-09 12:40 270 4 gusting 6 10.1
2019-Dec-09 12:35 225 4 gusting 6 9.8
2019-Dec-09 12:30 255 2 gusting 4 9.5
2019-Dec-09 12:25 220 1 gusting 2 9.1
2019-Dec-09 12:20 220 1 gusting 4 9.1
2019-Dec-09 12:15 285 1 gusting 7 9.1
2019-Dec-09 12:10 270 1 gusting 7 9.1
2019-Dec-09 12:05 190 3 gusting 4 8.6
2019-Dec-09 12:00 320 0 gusting 5 8.1
2019-Dec-09 11:55 135 1 gusting 6 8.0
2019-Dec-09 11:50 140 4 gusting 7 8.0
2019-Dec-09 11:45 145 5 gusting 7 7.8
2019-Dec-09 11:40 140 6 gusting 7 7.7
2019-Dec-09 11:35 145 5 gusting 6 7.6
2019-Dec-09 11:30 150 4 gusting 5 7.6
2019-Dec-09 11:25 160 3 gusting 3 7.6
2019-Dec-09 11:20 145 1 gusting 2 7.6
2019-Dec-09 11:15 130 1 gusting 2 7.6
2019-Dec-09 11:10 105 0 gusting 1 7.6
2019-Dec-09 11:05 325 7.6
2019-Dec-09 11:00 325 7.6
2019-Dec-09 10:55 310 0 gusting 1 7.5
2019-Dec-09 10:50 270 0 gusting 1 7.5
2019-Dec-09 10:45 250 0 gusting 2 7.5
2019-Dec-09 10:40 325 1 gusting 2 7.5
2019-Dec-09 10:35 305 0 gusting 5 7.3
2019-Dec-09 10:30 325 3 gusting 5 7.3
2019-Dec-09 10:25 295 2 gusting 5 7.3
2019-Dec-09 10:20 260 3 gusting 6 7.3
2019-Dec-09 10:15 295 3 gusting 6 7.3
2019-Dec-09 10:10 280 4 gusting 7 7.3
2019-Dec-09 10:05 305 1 gusting 7 7.3
2019-Dec-09 10:00 325 5 gusting 7 7.5
2019-Dec-09 09:55 325 4 gusting 5 7.5
2019-Dec-09 09:50 7.5
2019-Dec-09 09:45 100 0 gusting 3 7.3
2019-Dec-09 09:40 070 1 gusting 5 7.3
2019-Dec-09 09:35 030 2 gusting 7 7.2
2019-Dec-09 09:30 050 3 gusting 7 7.2
2019-Dec-09 09:25 005 3 gusting 6 7.1
2019-Dec-09 09:20 035 4 gusting 6 7.1
2019-Dec-09 09:15 7.1
2019-Dec-09 09:10 7.2
2019-Dec-09 09:05 025 4 gusting 6 7.2
2019-Dec-09 09:00 015 2 gusting 6 7.1
2019-Dec-09 08:55 050 2 gusting 6 7.1
2019-Dec-09 08:50 045 3 gusting 6 7.1
2019-Dec-09 08:45 020 4 gusting 6 7.1
2019-Dec-09 08:40 020 4 gusting 7 7.1
2019-Dec-09 08:35 025 6 gusting 7 7.1
2019-Dec-09 08:30 030 3 gusting 5 6.8
2019-Dec-09 08:25 025 4 gusting 6 6.8
2019-Dec-09 08:20 025 4 gusting 6 6.8
2019-Dec-09 08:15 010 4 gusting 6 6.8
2019-Dec-09 08:10 045 4 gusting 5 6.8
2019-Dec-09 08:05 035 0 gusting 4 6.8
2019-Dec-09 08:00 040 2 gusting 5 6.7
2019-Dec-09 07:55 035 3 gusting 6 6.7
2019-Dec-09 07:50 020 4 gusting 6 6.7
2019-Dec-09 07:45 040 4 gusting 5 6.7
2019-Dec-09 07:40 025 3 gusting 4 6.6
2019-Dec-09 07:35 025 2 gusting 4 6.7
2019-Dec-09 07:30 065 1 gusting 4 6.6
2019-Dec-09 07:25 045 2 gusting 4 6.6
2019-Dec-09 07:20 040 2 gusting 4 6.6
2019-Dec-09 07:15 045 3 gusting 6 6.6
2019-Dec-09 07:10 030 4 gusting 6 6.6
2019-Dec-09 07:05 025 4 gusting 5 6.6
2019-Dec-09 07:00 035 3 gusting 4 6.6
2019-Dec-09 06:55 020 3 gusting 4 6.6
2019-Dec-09 06:50 045 3 gusting 4 6.6
2019-Dec-09 06:45 035 1 gusting 4 6.6
2019-Dec-09 06:40 035 3 gusting 4 6.6
2019-Dec-09 06:35 035 2 gusting 3 6.6
2019-Dec-09 06:30 025 1 gusting 2 6.5
2019-Dec-09 06:25 040 1 gusting 2 6.5
2019-Dec-09 06:20 050 1 gusting 2 6.3
2019-Dec-09 06:15 045 0 gusting 1 6.3
2019-Dec-09 06:10 035 1 gusting 1 6.2
2019-Dec-09 06:05 035 0 gusting 1 6.2
2019-Dec-09 06:00 030 1 gusting 1 6.2
2019-Dec-09 05:55 035 0 gusting 1 6.1
2019-Dec-09 05:50 025 0 gusting 1 6.1
2019-Dec-09 05:45 010 0 gusting 1 6.1
2019-Dec-09 05:40 005 0 gusting 2 6.1
2019-Dec-09 05:35 350 1 gusting 2 6.1
2019-Dec-09 05:30 345 1 gusting 2 6.1
2019-Dec-09 05:25 330 0 gusting 2 6.1
2019-Dec-09 05:20 300 1 gusting 2 6.1
2019-Dec-09 05:15 020 0 gusting 3 6.1
2019-Dec-09 05:10 315 2 gusting 3 6.0
2019-Dec-09 05:05 010 0 gusting 2 6.0
2019-Dec-09 05:00 315 1 gusting 2 6.0
2019-Dec-09 04:55 350 0 gusting 1 6.0
2019-Dec-09 04:50 310 1 gusting 1 6.0
2019-Dec-09 04:45 050 6.0
2019-Dec-09 04:40 6.0
2019-Dec-09 04:35 5.8
2019-Dec-09 04:30 5.8
2019-Dec-09 04:25 5.7
2019-Dec-09 04:20 5.7
2019-Dec-09 04:15 5.6
2019-Dec-09 04:10 5.6
2019-Dec-09 04:05 5.6
2019-Dec-09 04:00 010 5.5
2019-Dec-09 03:55 015 1 gusting 2 5.5
2019-Dec-09 03:50 035 2 gusting 2 5.5
2019-Dec-09 03:45 040 2 gusting 3 5.3
2019-Dec-09 03:40 035 1 gusting 3 5.3
2019-Dec-09 03:35 060 2 gusting 3 5.3
2019-Dec-09 03:30 080 5.3
2019-Dec-09 03:25 080 5.3
2019-Dec-09 03:20 100 5.2
2019-Dec-09 03:15 080 1 gusting 0 5.1
2019-Dec-09 03:10 355 5.1
2019-Dec-09 03:05 345 5.1
2019-Dec-09 03:00 350 5.1
2019-Dec-09 02:55 350 0 gusting 1 5.0
2019-Dec-09 02:50 4.8
2019-Dec-09 02:45 4.8
2019-Dec-09 02:40 335 2 gusting 2 4.6
2019-Dec-09 02:35 350 0 gusting 3 4.6
2019-Dec-09 02:30 4.6
2019-Dec-09 02:25 345 3 gusting 3 4.6
2019-Dec-09 02:20 4.6
2019-Dec-09 02:15 345 0 gusting 1 4.6
2019-Dec-09 02:10 340 4.5
2019-Dec-09 02:05 4.5
2019-Dec-09 02:00 345 0 gusting 2 4.3
2019-Dec-09 01:55 345 1 gusting 2 4.1
2019-Dec-09 01:50 340 2 gusting 2 4.1
2019-Dec-09 01:45 345 0 gusting 1 4.0
2019-Dec-09 01:40 340 3.7
2019-Dec-09 01:35 350 3.6
2019-Dec-09 01:30 315 3.2
2019-Dec-09 01:25 315 3.1
2019-Dec-09 01:20 315 3.1
2019-Dec-09 01:15 150 2.9
2019-Dec-09 01:10 145 1 gusting 2 2.7
2019-Dec-09 01:05 140 1 gusting 2 2.9
2019-Dec-09 01:00 150 1 gusting 1 2.9
2019-Dec-09 00:55 160 0 gusting 1 3.0
2019-Dec-09 00:50 135 0 gusting 1 2.6
2019-Dec-09 00:45 115 0 gusting 1 2.6
2019-Dec-09 00:40 135 0 gusting 1 2.6
2019-Dec-09 00:35 115 2.6
2019-Dec-09 00:30 115 2.7
2019-Dec-09 00:25 2.9
2019-Dec-09 00:20 095 0 gusting 0 2.9
2019-Dec-09 00:15 145 3.0
2019-Dec-09 00:10 085 3.1
2019-Dec-09 00:05 095 3.1
2019-Dec-09 00:00 130 3.2
2019-Dec-08 23:55 335 0 gusting 1 3.1
2019-Dec-08 23:50 055 3.4
2019-Dec-08 23:45 3.6
2019-Dec-08 23:40 335 0 gusting 0 3.5
2019-Dec-08 23:35 010 3.6
2019-Dec-08 23:30 345 0 gusting 1 3.7
2019-Dec-08 23:25 010 3.9
2019-Dec-08 23:20 010 4.0
2019-Dec-08 23:15 130 0 gusting 1 4.2
2019-Dec-08 23:10 100 0 gusting 1 4.5
2019-Dec-08 23:05 125 0 gusting 1 4.5
2019-Dec-08 23:00 125 4.5
2019-Dec-08 22:55 130 4.7
2019-Dec-08 22:50 110 0 gusting 1 5.0
2019-Dec-08 22:45 100 5.1
2019-Dec-08 22:40 100 0 gusting 3 5.1
2019-Dec-08 22:35 135 2 gusting 3 5.1
2019-Dec-08 22:30 130 0 gusting 2 5.1
2019-Dec-08 22:25 140 1 gusting 2 5.3
2019-Dec-08 22:20 120 1 gusting 2 5.6
2019-Dec-08 22:15 120 1 gusting 2 5.8
2019-Dec-08 22:10 110 1 gusting 2 5.8
2019-Dec-08 22:05 120 1 gusting 2 6.1
2019-Dec-08 22:00 165 1 gusting 4 6.1
2019-Dec-08 21:55 165 2 gusting 4 6.1
2019-Dec-08 21:50 175 2 gusting 4 6.5
2019-Dec-08 21:45 150 1 gusting 4 6.7
2019-Dec-08 21:40 165 1 gusting 4 7.0
2019-Dec-08 21:35 160 1 gusting 5 7.1
2019-Dec-08 21:30 170 4 gusting 5 7.2
2019-Dec-08 21:25 165 4 gusting 6 7.5
2019-Dec-08 21:20 160 4 gusting 6 7.6
2019-Dec-08 21:15 160 4 gusting 6 7.6
2019-Dec-08 21:10 150 3 gusting 8 7.8
2019-Dec-08 21:05 150 4 gusting 8 8.0
2019-Dec-08 21:00 150 4 gusting 8 8.1
2019-Dec-08 20:55 165 6 gusting 8 8.1
2019-Dec-08 20:50 160 3 gusting 6 8.3
2019-Dec-08 20:45 160 3 gusting 8 8.5
2019-Dec-08 20:40 160 2 gusting 8 8.5
2019-Dec-08 20:35 150 4 gusting 8 8.3
2019-Dec-08 20:30 165 5 gusting 7 8.3
2019-Dec-08 20:25 170 3 gusting 7 8.2
2019-Dec-08 20:20 150 4 gusting 10 8.2
2019-Dec-08 20:15 155 7 gusting 10 8.2
2019-Dec-08 20:10 160 8 gusting 10 8.2
2019-Dec-08 20:05 150 7 gusting 10 8.3
2019-Dec-08 20:00 145 6 gusting 10 8.6
2019-Dec-08 19:55 140 7 gusting 10 8.6
2019-Dec-08 19:50 145 5 gusting 9 8.7
2019-Dec-08 19:45 195 4 gusting 9 8.8
2019-Dec-08 19:40 195 5 gusting 9 9.1
2019-Dec-08 19:35 200 5 gusting 9 9.1
2019-Dec-08 19:30 160 5 gusting 9 9.1
2019-Dec-08 19:25 145 5 gusting 9 9.0
2019-Dec-08 19:20 145 7 gusting 9 9.1
2019-Dec-08 19:15 195 4 gusting 7 9.0
2019-Dec-08 19:10 155 5 gusting 10 8.8
2019-Dec-08 19:05 150 6 gusting 13 9.0
2019-Dec-08 19:00 160 8 gusting 13 9.1
2019-Dec-08 18:55 145 6 gusting 10 9.1
2019-Dec-08 18:50 140 6 gusting 10 9.1
2019-Dec-08 18:45 160 4 gusting 8 8.8
2019-Dec-08 18:40 175 4 gusting 11 8.7
2019-Dec-08 18:35 135 7 gusting 10 8.7
2019-Dec-08 18:30 160 5 gusting 10 8.6
2019-Dec-08 18:25 150 6 gusting 10 8.5
2019-Dec-08 18:20 155 6 gusting 9 8.5
2019-Dec-08 18:15 150 4 gusting 10 8.2
2019-Dec-08 18:10 135 5 gusting 10 8.2
2019-Dec-08 18:05 150 7 gusting 10 8.6
2019-Dec-08 18:00 175 6 gusting 9 8.5
2019-Dec-08 17:55 145 6 gusting 10 8.6
2019-Dec-08 17:50 195 6 gusting 10 8.6
2019-Dec-08 17:45 160 2 gusting 12 8.6
2019-Dec-08 17:40 145 9 gusting 13 8.1
2019-Dec-08 17:35 155 7 gusting 13 7.8
2019-Dec-08 17:30 150 8 gusting 11 7.7
2019-Dec-08 17:25 155 7 gusting 12 7.7
2019-Dec-08 17:20 150 9 gusting 12 7.6
2019-Dec-08 17:15 145 8 gusting 13 7.6
2019-Dec-08 17:10 155 7 gusting 14 7.6
2019-Dec-08 17:05 130 11 gusting 14 7.6
2019-Dec-08 17:00 150 7 gusting 12 7.8
2019-Dec-08 16:55 150 8 gusting 13 7.8
2019-Dec-08 16:50 145 10 gusting 13 7.6
2019-Dec-08 16:45 155 9 gusting 12 7.6
2019-Dec-08 16:40 145 9 gusting 12 7.6
2019-Dec-08 16:35 155 9 gusting 12 7.6
2019-Dec-08 16:30 160 6 gusting 11 7.7
2019-Dec-08 16:25 145 6 gusting 10 7.5
2019-Dec-08 16:20 140 6 gusting 9 7.2
2019-Dec-08 16:15 165 5 gusting 10 7.0
2019-Dec-08 16:10 145 7 gusting 10 6.7
2019-Dec-08 16:05 135 8 gusting 11 6.8
2019-Dec-08 16:00 125 9 gusting 12 6.6
2019-Dec-08 15:55 160 6 gusting 10 6.6
2019-Dec-08 15:50 135 7 gusting 10 6.6
2019-Dec-08 15:45 120 6 gusting 11 6.6
2019-Dec-08 15:40 135 7 gusting 12 6.8
2019-Dec-08 15:35 150 5 gusting 10 6.8
2019-Dec-08 15:30 145 8 gusting 12 6.5
2019-Dec-08 15:25 145 8 gusting 12 6.2
2019-Dec-08 15:20 130 7 gusting 12 6.2
2019-Dec-08 15:15 130 8 gusting 11 6.1
2019-Dec-08 15:10 120 5 gusting 10 6.1
2019-Dec-08 15:05 135 7 gusting 11 5.8
2019-Dec-08 15:00 130 9 gusting 11 5.7
2019-Dec-08 14:55 100 6 gusting 10 5.8
2019-Dec-08 14:50 145 6 gusting 11 6.0
2019-Dec-08 14:45 130 7 gusting 11 5.7
2019-Dec-08 14:40 130 8 gusting 10 5.5
2019-Dec-08 14:35 130 6 gusting 11 5.5
2019-Dec-08 14:30 145 8 gusting 11 5.2
2019-Dec-08 14:25 145 6 gusting 9 5.1
2019-Dec-08 14:20 160 3 gusting 4 5.1
2019-Dec-08 14:15 145 3 gusting 4 4.8
2019-Dec-08 14:10 115 0 gusting 4 4.5
2019-Dec-08 14:05 125 4.0
2019-Dec-08 14:00 015 3.1
2019-Dec-08 13:55 295 2.4
2019-Dec-08 13:50 315 1.6
2019-Dec-08 13:45 315 1.1
2019-Dec-08 13:40 290 0.3
2019-Dec-08 13:35 290 -0.4
2019-Dec-08 13:30 295 -0.9
2019-Dec-08 13:25 285 -1.4
2019-Dec-08 13:20 270 0 gusting 1 -1.9
2019-Dec-08 13:15 275 1 gusting 2 -2.1
2019-Dec-08 13:10 275 1 gusting 2 -2.6
2019-Dec-08 13:05 245 0 gusting 3 -2.9
2019-Dec-08 13:00 250 1 gusting 3 -3.0
2019-Dec-08 12:55 245 3 gusting 3 -3.4
2019-Dec-08 12:50 255 1 gusting 1 -3.3
2019-Dec-08 12:45 270 -3.3
2019-Dec-08 12:40 340 -3.4
2019-Dec-08 12:35 340 -3.8
2019-Dec-08 12:30 030 1 gusting 1 -4.0
2019-Dec-08 12:25 250 -4.4
2019-Dec-08 12:20 250 0 gusting 3 -4.7
2019-Dec-08 12:15 240 1 gusting 3 -4.8
2019-Dec-08 12:10 245 2 gusting 3 -4.8
2019-Dec-08 12:05 245 2 gusting 3 -4.7
2019-Dec-08 12:00 260 1 gusting 2 -4.4
2019-Dec-08 11:55 220 0 gusting 0 -4.2
2019-Dec-08 11:50 135 -4.3
2019-Dec-08 11:45 185 -4.0
2019-Dec-08 11:40 185 -4.2
2019-Dec-08 11:35 235 -4.0
2019-Dec-08 11:30 235 -3.9
2019-Dec-08 11:25 240 -3.9
2019-Dec-08 11:20 240 -3.8
2019-Dec-08 11:15 260 0 gusting 1 -3.8
2019-Dec-08 11:10 260 0 gusting 1 -3.8
2019-Dec-08 11:05 245 0 gusting 1 -3.5
2019-Dec-08 11:00 210 -3.4
2019-Dec-08 10:55 165 -3.5
2019-Dec-08 10:50 235 -3.4
2019-Dec-08 10:45 180 0 gusting 1 -3.0
2019-Dec-08 10:40 095 0 gusting 3 -2.4
2019-Dec-08 10:35 105 1 gusting 3 -2.0
2019-Dec-08 10:30 085 2 gusting 4 -1.8
2019-Dec-08 10:25 100 1 gusting 4 -1.1
2019-Dec-08 10:20 080 1 gusting 2 -0.4
2019-Dec-08 10:15 105 1 gusting 3 0.1
2019-Dec-08 10:10 080 2 gusting 4 0.8
2019-Dec-08 10:05 080 2 gusting 4 1.1
2019-Dec-08 09:55 075 3 gusting 6 1.2
2019-Dec-08 09:50 080 3 gusting 6 1.1
2019-Dec-08 09:45 075 4 gusting 6 1.1
2019-Dec-08 09:40 075 5 gusting 6 1.1
2019-Dec-08 09:35 085 4 gusting 6 0.8
2019-Dec-08 09:30 080 4 gusting 6 0.6
2019-Dec-08 09:25 085 4 gusting 6 0.3
2019-Dec-08 09:20 075 3 gusting 6 -0.0
2019-Dec-08 09:15 075 3 gusting 4 -0.5
2019-Dec-08 09:10 075 2 gusting 4 -1.1
2019-Dec-08 09:05 065 3 gusting 4 -1.9
2019-Dec-08 09:00 075 3 gusting 4 -2.9
2019-Dec-08 08:55 080 3 gusting 4 -3.4
2019-Dec-08 08:50 075 2 gusting 4 -3.6
2019-Dec-08 08:45 075 2 gusting 4 -3.9
2019-Dec-08 08:40 080 2 gusting 4 -4.4
2019-Dec-08 08:35 075 3 gusting 4 -4.7
2019-Dec-08 08:30 070 2 gusting 3 -4.7
2019-Dec-08 08:25 070 2 gusting 3 -4.4
2019-Dec-08 08:20 060 1 gusting 2 -4.4
2019-Dec-08 08:15 055 0 gusting 2 -4.5
2019-Dec-08 08:10 060 1 gusting 2 -4.4
2019-Dec-08 08:05 070 0 gusting 1 -4.4
2019-Dec-08 08:00 100 0 gusting 1 -4.4
2019-Dec-08 07:55 085 0 gusting 2 -4.2
2019-Dec-08 07:50 110 0 gusting 3 -4.0
2019-Dec-08 07:45 095 0 gusting 3 -4.2
2019-Dec-08 07:40 085 1 gusting 3 -4.0
2019-Dec-08 07:35 105 0 gusting 3 -3.8
2019-Dec-08 07:30 095 1 gusting 3 -3.6
2019-Dec-08 07:25 085 1 gusting 3 -3.8
2019-Dec-08 07:20 080 1 gusting 3 -3.5
2019-Dec-08 07:15 110 1 gusting 5 -3.4
2019-Dec-08 07:10 070 3 gusting 5 -3.6
2019-Dec-08 07:05 085 3 gusting 5 -4.3
2019-Dec-08 07:00 075 2 gusting 5 -4.5
2019-Dec-08 06:55 075 2 gusting 3 -4.4
2019-Dec-08 06:50 090 1 gusting 2 -4.5
2019-Dec-08 06:45 100 0 gusting 4 -4.4
2019-Dec-08 06:40 130 1 gusting 4 -4.5
2019-Dec-08 06:35 080 2 gusting 3 -4.5
2019-Dec-08 06:30 090 1 gusting 3 -4.4
2019-Dec-08 06:25 125 0 gusting 2 -4.4
2019-Dec-08 06:20 110 0 gusting 2 -4.3
2019-Dec-08 06:15 145 -4.4
2019-Dec-08 06:10 225 0 gusting 2 -4.3
2019-Dec-08 06:05 230 -4.3
2019-Dec-08 06:00 265 -4.4
2019-Dec-08 05:55 265 -4.4
2019-Dec-08 05:50 265 -4.2
2019-Dec-08 05:45 265 -4.0
2019-Dec-08 05:40 260 -4.3
2019-Dec-08 05:35 260 -4.2
2019-Dec-08 05:30 260 -4.0
2019-Dec-08 05:25 315 -4.0
2019-Dec-08 05:20 315 -4.0
2019-Dec-08 05:15 315 -3.9
2019-Dec-08 05:10 315 -4.0
2019-Dec-08 05:05 325 -3.9
2019-Dec-08 05:00 325 -3.9
2019-Dec-08 04:55 345 -3.9
2019-Dec-08 04:50 005 -3.9
2019-Dec-08 04:45 265 -3.5
2019-Dec-08 04:40 240 -3.5
2019-Dec-08 04:35 230 1 gusting 1 -3.8
2019-Dec-08 04:30 245 1 gusting 1 -3.9
2019-Dec-08 04:25 250 -3.9
2019-Dec-08 04:20 305 -3.8
2019-Dec-08 04:15 305 -3.5
2019-Dec-08 04:10 150 -3.5
2019-Dec-08 04:05 150 -3.5
2019-Dec-08 04:00 150 -3.8
2019-Dec-08 03:55 275 -3.5
2019-Dec-08 03:50 275 -3.5
2019-Dec-08 03:45 275 -3.4
2019-Dec-08 03:40 275 -3.3
2019-Dec-08 03:35 280 -3.4
2019-Dec-08 03:30 280 -3.1
2019-Dec-08 03:25 275 -3.1
2019-Dec-08 03:20 275 -2.9
2019-Dec-08 03:15 275 0 gusting 1 -2.9
2019-Dec-08 03:10 280 1 gusting 1 -2.9
2019-Dec-08 03:05 290 1 gusting 1 -2.9
2019-Dec-08 03:00 255 -2.9
2019-Dec-08 02:55 245 0 gusting 2 -2.8
2019-Dec-08 02:50 240 1 gusting 2 -2.5
2019-Dec-08 02:45 250 0 gusting 1 -2.6
2019-Dec-08 02:40 270 -2.6
2019-Dec-08 02:35 270 0 gusting 1 -2.6
2019-Dec-08 02:30 280 1 gusting 1 -2.5
2019-Dec-08 02:25 295 0 gusting 0 -2.6
2019-Dec-08 02:20 295 -2.8
2019-Dec-08 02:15 295 -2.6
2019-Dec-08 02:10 295 0 gusting 1 -2.5
2019-Dec-08 02:05 295 0 gusting 1 -2.4
2019-Dec-08 02:00 300 0 gusting 1 -2.4
2019-Dec-08 01:55 -2.4
2019-Dec-08 01:45 310 -2.4
2019-Dec-08 01:40 305 -2.1
2019-Dec-08 01:35 305 -1.9
2019-Dec-08 01:30 305 -1.9
2019-Dec-08 01:25 305 -1.9
2019-Dec-08 01:20 305 -1.9
2019-Dec-08 01:15 325 0 gusting 1 -1.6
2019-Dec-08 01:10 320 0 gusting 1 -1.5
2019-Dec-08 01:05 320 0 gusting 2 -1.4
2019-Dec-08 01:00 340 1 gusting 2 -1.4
2019-Dec-08 00:55 330 1 gusting 1 -1.4
2019-Dec-08 00:50 335 1 gusting 2 -1.3
2019-Dec-08 00:45 330 1 gusting 2 -1.0
2019-Dec-08 00:40 340 -0.9
2019-Dec-08 00:35 325 0 gusting 1 -0.5
2019-Dec-08 00:30 325 0 gusting 1 -0.4
2019-Dec-08 00:25 330 0 gusting 1 -0.3
2019-Dec-08 00:20 340 0 gusting 1 -0.0
2019-Dec-08 00:15 345 -0.0
2019-Dec-08 00:10 345 0.1
2019-Dec-08 00:05 345 0.2
2019-Dec-08 00:00 0.3
2019-Dec-07 23:55 015 0 gusting 1 0.5
2019-Dec-07 23:50 045 0 gusting 2 0.6
2019-Dec-07 23:45 355 0 gusting 2 0.8
2019-Dec-07 23:40 340 1 gusting 2 1.0
2019-Dec-07 23:35 1.1
2019-Dec-07 23:30 1.2
2019-Dec-07 23:25 1.2
2019-Dec-07 23:20 010 0 gusting 4 1.1
2019-Dec-07 23:15 1.1
2019-Dec-07 23:10 1.1
2019-Dec-07 23:05 1.1
2019-Dec-07 23:00 1.2